Location: ??????
(41.3164°N, 22.6615°E)
Time: 19:50:43
(UTC+00:00)

ISS - Visible Passes

Search period start: 24 January 2022 00:00
Search period end: 03 February 2022 00:00
Orbit: 413 x 422 km, 51.6° (Epoch: 24 January)

Date Brightness Start Highest point End Pass type
(mag) Time Alt. Az. Time Alt. Az. Time Alt. Az.
24 Jan -1.5 17:18:40 10° NW 17:20:43 15° N 17:20:52 15° N visible
25 Jan -1.6 16:30:08 10° WNW 16:32:28 17° NNW 16:34:48 10° NNE visible
26 Jan -1.4 17:20:04 10° NNW 17:21:41 14° N 17:21:41 14° N visible
27 Jan -1.4 16:31:44 10° NW 16:33:37 14° N 16:35:30 10° NNE visible
28 Jan -1.5 17:20:51 10° NNW 17:22:29 16° N 17:22:29 16° N visible
29 Jan -1.6 16:32:47 10° NNW 16:34:45 15° N 16:36:27 11° NE visible
29 Jan -0.6 18:09:12 10° NW 18:09:23 11° NW 18:09:23 11° NW visible
30 Jan -2.1 17:21:15 10° NW 17:23:24 23° N 17:23:24 23° N visible
31 Jan -2.0 16:33:17 10° NNW 16:35:47 19° NNE 16:37:29 14° NE visible
31 Jan -1.0 18:09:37 10° NW 18:10:25 16° NW 18:10:25 16° NW visible
01 Feb -3.4 17:21:34 10° NW 17:24:36 47° NNE 17:24:36 47° NNE visible
02 Feb -2.9 16:33:34 10° NW 16:36:37 32° NNE 16:38:54 15° E visible
02 Feb -1.3 18:10:19 10° WNW 18:11:51 22° W 18:11:51 22° W visible
